FW8927 Weather Reports


time (UTC)temp
F
wind
direction
speed
knots
gust
knots
rain 1hr
in
rain 24hr
in
rain mn
in
humidity
%
barometer
mb
20260903084605 72 0 0.0 0.0 0.00 0.00 0.00 99 1016.3
20260903083107 72 0 0.0 0.0 0.00 0.00 0.00 99 1016.1
20260903081604 72 0 0.0 0.0 0.00 0.00 0.00 99 1016.2
20260903074558 72 0 0.0 0.0 0.00 0.00 0.00 99 1016.1
20260903073107 72 0 0.0 0.0 0.00 0.00 0.00 98 1016.1
20260903071612 72 0 0.0 0.0 0.00 0.00 0.00 98 1016.0
20260903070112 72 0 0.0 0.0 0.00 0.00 0.00 99 1015.8
20260903064602 72 0 0.0 0.0 0.00 0.00 0.00 98 1015.9
20260903063126 73 0 0.0 0.0 0.00 0.00 0.00 98 1015.9
20260903061605 73 0 0.0 0.0 0.00 0.00 0.00 98 1015.8
20260903060117 73 0 0.0 0.0 0.00 0.00 0.00 98 1016.0
20260903054606 73 0 0.0 0.0 0.00 0.00 0.00 97 1015.9
20260903053105 73 0 0.0 0.0 0.00 0.00 0.00 97 1016.0
20260903051610 74 0 0.0 0.0 0.00 0.00 0.00 97 1015.9
20260903050129 74 0 0.0 0.0 0.00 0.00 0.00 96 1015.8
20260903044606 74 0 0.0 0.0 0.00 0.00 0.00 97 1015.9
20260903043103 74 0 0.0 0.0 0.00 0.00 0.00 96 1015.8
20260903041606 74 0 0.0 0.0 0.00 0.00 0.00 95 1015.9
20260903040110 75 0 0.0 0.0 0.00 0.00 0.00 95 1015.9
20260903034602 75 0 0.0 0.0 0.00 0.00 0.00 94 1015.9
20260903033104 76 0 0.0 0.0 0.00 0.00 0.00 93 1016.1
20260903031604 76 0 0.0 0.0 0.00 0.00 0.00 92 1016.0
20260903030108 77 0 0.0 0.0 0.00 0.00 0.00 91 1016.1
20260903024604 77 0 0.0 0.0 0.00 0.00 0.00 90 1016.1
20260903023110 78 0 0.0 0.0 0.00 0.00 0.00 90 1016.2
20260903021607 78 0 0.0 0.0 0.00 0.00 0.00 89 1016.2
20260903020106 78 0 0.0 0.0 0.00 0.00 0.00 88 1016.2
20260903014608 79 0 0.0 0.0 0.00 0.00 0.00 88 1016.2
20260903013107 79 0 0.0 0.0 0.00 0.00 0.00 87 1016.1
20260903011611 80 0 0.0 0.0 0.00 0.00 0.00 86 1016.0
20260903010105 81 0 0.0 0.0 0.00 0.00 0.00 85 1015.8
20260903004605 81 0 0.0 0.0 0.00 0.00 0.00 84 1015.8
20260903003102 82 0 0.0 3.5 0.00 0.00 0.00 81 1015.6
20260903001607 84 0 0.0 0.0 0.00 0.00 0.00 79 1015.6
20260903000104 85 0 0.0 0.0 0.00 0.00 0.00 77 1015.7
20260902234603 86 0 0.0 0.0 0.00 0.00 0.00 74 1015.7
20260902233105 88 0 0.0 0.0 0.00 0.00 0.00 70 1015.9
20260902231609 90 0 0.0 0.0 0.00 0.00 0.00 67 1016.0
20260902224604 92 227 0.9 3.5 0.00 0.00 0.00 62 1016.0
20260902223109 92 239 0.9 2.6 0.00 0.00 0.00 61 1016.1
20260902221605 92 227 0.0 2.6 0.00 0.00 0.00 64 1016.1
20260902220109 92 0 0.9 3.5 0.00 0.00 0.00 62 1016.2
20260902214607 92 282 1.7 3.5 0.00 0.00 0.00 61 1016.2
20260902213105 92 159 2.6 5.2 0.00 0.00 0.00 64 1016.2
20260902211604 92 287 1.7 5.2 0.00 0.00 0.00 61 1016.2
20260902210110 92 273 0.9 6.1 0.00 0.00 0.00 65 1016.3
20260902204606 92 293 1.7 7.0 0.00 0.00 0.00 60 1016.3
20260902203104 93 235 0.9 7.0 0.00 0.00 0.00 61 1016.2
20260902201606 92 290 1.7 7.0 0.00 0.00 0.00 63 1016.5
20260902200121 92 261 3.5 6.1 0.00 0.00 0.00 59 1016.6
20260902194607 92 285 2.6 7.0 0.00 0.00 0.00 61 1016.8
20260902193107 92 284 3.5 7.0 0.00 0.00 0.00 62 1016.9
20260902191605 92 305 2.6 7.8 0.00 0.00 0.00 62 1017.0
20260902190109 92 0 0.9 7.0 0.00 0.00 0.00 64 1017.0
20260902184604 91 244 1.7 7.0 0.00 0.00 0.00 62 1017.3
20260902183109 91 273 2.6 7.8 0.00 0.00 0.00 64 1017.2
20260902181607 92 299 1.7 7.0 0.00 0.00 0.00 62 1017.4
20260902180132 91 222 2.6 7.0 0.00 0.00 0.00 64 1017.7
20260902174604 90 228 2.6 7.8 0.00 0.00 0.00 65 1017.8
20260902173111 90 325 2.6 9.6 0.00 0.00 0.00 67 1018.0
20260902171611 90 235 1.7 9.6 0.00 0.00 0.00 67 1018.1
20260902170108 89 238 0.9 7.0 0.00 0.00 0.00 67 1018.1
20260902164607 89 270 1.7 6.1 0.00 0.00 0.00 67 1018.3
20260902163106 90 0 0.9 5.2 0.00 0.00 0.00 71 1018.4
20260902161608 89 323 0.0 4.3 0.00 0.00 0.00 70 1018.5
20260902160108 88 294 1.7 5.2 0.00 0.00 0.00 72 1018.5
20260902154605 87 274 2.6 7.8 0.00 0.00 0.00 73 1018.5
20260902153104 87 253 1.7 6.1 0.00 0.00 0.00 73 1018.5
20260902151602 86 235 2.6 7.0 0.00 0.00 0.00 77 1018.4
20260902150105 85 220 0.0 4.3 0.00 0.00 0.00 82 1018.2
20260902144602 84 176 0.0 3.5 0.00 0.00 0.00 84 1018.3
20260902143108 82 231 0.0 4.3 0.00 0.00 0.00 87 1018.3
20260902141605 80 0 0.9 4.3 0.00 0.00 0.00 90 1018.2
20260902140108 79 217 2.6 4.3 0.00 0.00 0.00 91 1018.1
20260902134608 78 210 1.7 3.5 0.00 0.00 0.00 93 1018.0
20260902133102 76 202 0.9 3.5 0.00 0.00 0.00 96 1018.1
20260902131607 75 202 1.7 3.5 0.00 0.00 0.00 98 1018.0
20260902130106 73 202 1.7 3.5 0.00 0.00 0.00 100 1018.0
20260902124608 72 202 1.7 3.5 0.00 0.00 0.00 100 1018.0
20260902123109 71 0 0.0 0.0 0.00 0.00 0.00 100 1018.1
20260902121613 70 0 0.0 0.0 0.00 0.00 0.00 100 1018.2
20260902120107 70 0 0.0 0.0 0.00 0.00 0.00 100 1018.0
20260902114605 69 0 0.0 0.0 0.00 0.00 0.00 100 1018.0
20260902113112 68 0 0.0 0.0 0.00 0.00 0.00 100 1017.9
20260902111605 68 0 0.0 0.0 0.00 0.00 0.00 100 1017.7
20260902110121 68 0 0.0 0.0 0.00 0.00 0.00 100 1017.6
20260902104605 68 0 0.0 0.0 0.00 0.00 0.00 100 1017.5
20260902103105 68 0 0.0 0.0 0.00 0.00 0.00 99 1017.4
20260902101606 69 0 0.0 0.0 0.00 0.00 0.00 99 1017.3
20260902100113 69 0 0.0 0.0 0.00 0.00 0.00 99 1017.1
20260902094607 69 0 0.0 0.0 0.00 0.00 0.00 99 1017.0
20260902093101 69 0 0.0 0.0 0.00 0.00 0.00 100 1017.1
20260902091600 69 0 0.0 0.0 0.00 0.00 0.00 99 1017.0
20260902090104 70 0 0.0 0.0 0.00 0.00 0.00 99 1017.0